Regional Weather Roundup
Issued by NWS

Home | Current Version | Previous Version | Text Only | Print | Product List | Glossary Off
Versions: 1 2 3 4 5 6 7 8 9 10 11 12 13 14 15 16 17 18 19 20 21 22 23 24 25 26 27 28 29 30 31 32 33 34 35 36 37 38 39 40 41 42 43 44 45 46 47 48 49 50

266
ASUS43 KMPX 192101
RWRMN
WEATHER ROUNDUP FOR MINNESOTA
NATIONAL WEATHER SERVICE TWIN CITIES/CHANHASSEN MN
400 PM CDT THU OCT 19 2017


NOTE: "FAIR" INDICATES FEW OR NO CLOUDS BELOW 12,000 FEET WITH NO
SIGNIFICANT WEATHER AND/OR OBSTRUCTIONS TO VISIBILITY. N/A MEANS
CURRENT SKY AND/OR WEATHER CONDITIONS ARE NOT AVAILABLE.

MNZ060>063-068>070-192200-
   Twin Cities Metro

CITY           SKY/WX    TMP DP  RH WIND       PRES   REMARKS
TWIN CITIES    MOSUNNY   73  34  23 S20G26    29.97F
ST PAUL        SUNNY     72  36  26 S17       29.97F
CRYSTAL        SUNNY     72  32  23 S13G26    29.95F
BLAINE         MOSUNNY   73  36  25 S16G23    29.95F
LAKEVILLE      SUNNY     72  36  26 S14G22    29.98F
EDEN PRAIRIE   SUNNY     73  34  23 S14G26    29.95F
SOUTH ST PAUL  SUNNY     74  33  23 S13       29.97F
LAKE ELMO      FAIR      72  37  28 S20       29.99S
$$
MNZ001>005-007-008-013>017-022>024-027-028-192200-
   Northwest Minnesota

CITY           SKY/WX    TMP DP  RH WIND       PRES   REMARKS
BEMIDJI        SUNNY     70  37  30 SW15G23   29.82F
HALLOCK        CLOUDY    66  32  28 S16G22    29.71F
ROSEAU         CLOUDY    68  37  32 S16       29.75F
WARROAD        MOSUNNY   66  39  37 S8        29.76S
CROOKSTON      CLOUDY    72  37  28 SW20      29.76F
FOSSTON        CLOUDY    72  36  26 S22       29.80F
DETROIT LAKES  SUNNY     70  37  30 S16G23    29.83S
MOORHEAD       SUNNY     73  37  27 S15G22    29.78S
PARK RAPIDS    SUNNY     71  38  29 S16G25    29.85F
MAHNOMEN       FAIR      71  41  34 S15       29.80F
$$
MNZ006-009>011-018-025>026-192200-
   North Central Minnesota

CITY           SKY/WX    TMP DP  RH WIND       PRES   REMARKS
BAUDETTE       CLOUDY    66  34  30 S13       29.79F
FLAG ISLAND    CLOUDY    55  39  54 SE12      29.76S
INTL FALLS     SUNNY     67  31  26 VRB7      29.82F
WASKISH        SUNNY     72  37  28 SW12G20   29.80S
BIG FORK       SUNNY     68  36  30 S9G16     29.84F
LONGVILLE      SUNNY     72  34  25 S12G20    29.87F
GRAND RAPIDS   SUNNY     68  35  29 S7        29.90S
CRANE LAKE     SUNNY     64  27  24 S7        29.87F
ORR            SUNNY     66  27  22 S9G16     29.84S
COOK           MOSUNNY   66  32  28 S7        29.87F
WALKER         FAIR      70  35  27 S15G23    29.84F
$$
MNZ012-019>021-037-192200-
   Northeast Minnesota

CITY           SKY/WX    TMP DP  RH WIND       PRES   REMARKS
DULUTH         SUNNY     66  33  29 SW13      29.93F
ELY            SUNNY     64  27  24 S7G16     29.89F
HIBBING        SUNNY     65  31  28 S13       29.88F
EVELETH          N/A     65  16  15 S9          N/A
DULUTH HARBOR  SUNNY     70  32  24 SW13      29.92F
TWO HARBORS    SUNNY     68  39  34 S10       29.91F
SILVER BAY     SUNNY     64  28  25 SW14      29.91F
GRAND MARAIS     N/A     50  38  63 W8        29.94S
G MARAIS ARPRT SUNNY     57  27  30 S8        29.95S
$$
MNZ029>031-032-039>041-046>048-054>057-064-192200-
   West Central Minnesota

CITY           SKY/WX    TMP DP  RH WIND       PRES   REMARKS
FERGUS FALLS   SUNNY     72  43  35 S16       29.82F
WHEATON        SUNNY     75  39  27 S14G25    29.81F
MORRIS         SUNNY     75  45  33 S24G31    29.83F
ALEXANDRIA     SUNNY     73  39  29 S15       29.88F
ELBOW LAKE     FAIR      73  42  33 SW16G23   29.84F
WADENA         SUNNY     72  39  30 S13       29.86F
GLENWOOD       SUNNY     72  39  30 S18G29    29.88F
APPLETON       SUNNY     77  39  25 S14G23    29.84F
BENSON         SUNNY     75  39  27 SW17      29.87F
ORTONVILLE     SUNNY     75  45  33 N10G24    29.83F
MADISON        CLOUDY    79  43  27 S16G24    29.85F
WILLMAR        FAIR      75  43  31 S7G16     29.90F
$$
MNZ033>034-036-042>043-049>051-058-059-192200-
   Central Minnesota

CITY           SKY/WX    TMP DP  RH WIND       PRES   REMARKS
ST CLOUD       SUNNY     71  35  26 S16G29    29.92F
SAUK CENTRE    FAIR      71  38  30 S16G25    29.89F
PAYNESVILLE    SUNNY     72  38  29 S15       29.92S
AITKIN         SUNNY     68  36  30 S14       29.89F
PINE RIVER     SUNNY     70  37  30 SW10G17   29.91S
BRAINERD       SUNNY     70  32  24 SW18G28   29.90F
STAPLES        SUNNY     72  34  25 S13       29.88F
LONG PRAIRIE   FAIR      70  36  28 SE15G24   29.89S
LITTLE FALLS   SUNNY     70  21  16 S12G21    29.91S
LITCHFIELD     SUNNY     72  39  30 S5        29.93F
BUFFALO        SUNNY     72  32  23 S12G20    29.95F
MAPLE LAKE     SUNNY     73  38  28 S9G21     29.94F
HUTCHINSON     CLOUDY    71  40  32 S12G18    29.95F
$$
MNZ037-044-045-052-053-192200-
   East Central Minnesota

CITY           SKY/WX    TMP DP  RH WIND       PRES   REMARKS
PRINCETON      SUNNY     73  36  25 S13       29.93F
MORA           SUNNY     68  36  30 S14G21    29.94F
CAMBRIDGE      SUNNY     73  48  40 S13G21    29.94F
RUSH CITY      SUNNY     71  36  28 S8G20     29.94F
MOOSE LAKE     SUNNY     70  36  28 S8        29.92F
HINCKLEY       FAIR      70  36  28 S13G20    29.94F
CLOQUET        SUNNY     66  27  22 S14G20    29.93F
MCGREGOR       SUNNY     68  32  26 S17       29.92S
$$
MNZ071>073-080-081-089-090-097-098-192200-
   Southwest Minnesota

CITY           SKY/WX    TMP DP  RH WIND       PRES   REMARKS
MONTEVIDEO     SUNNY     79  45  29 SW14G20   29.87F
GRANITE FALLS  SUNNY     77  45  31 S21G26    29.90F
CANBY          SUNNY     76  44  31 S17G24    29.86F
MARSHALL       SUNNY     76  47  35 S18G26    29.89F
REDWOOD FALLS  SUNNY     74  40  29 S22       29.91F
OLIVIA         SUNNY     73  45  35 S15G23    29.91F
PIPESTONE      SUNNY     73  43  33 S17       29.92F
WORTHINGTON    SUNNY     74  44  34 S20G25    29.96F
JACKSON        SUNNY     72  39  30 S15G25    29.98F
TRACY          SUNNY     75  46  34 S14G24    29.92S
SLAYTON        SUNNY    N/A N/A N/A S20G26    29.94F
$$
MNZ065>067-074>077-082>085-091>093-192200-
   South Central Minnesota

CITY           SKY/WX    TMP DP  RH WIND       PRES   REMARKS
MANKATO        SUNNY     73  37  27 S14G20    29.98F
NEW ULM        SUNNY     72  37  28 S17       29.95F
ST JAMES       SUNNY     72  37  28 S18G25    29.98S
FAIRMONT       SUNNY     72  41  32 S21       29.99F
GLENCOE        SUNNY     73  35  25 S12G24    29.94F
FARIBAULT      SUNNY     72  36  26 S13       30.01F
OWATONNA       SUNNY     72  37  28 S15       30.01F
WASECA         SUNNY     72  36  26 S13G21    30.02F
$$
MNZ078>079-086>088-094>096-192200-
   Southeast Minnesota

CITY           SKY/WX    TMP DP  RH WIND       PRES   REMARKS
ROCHESTER      SUNNY     71  36  27 S15       30.05S
RED WING       SUNNY     75  27  16 S10       30.00S
STANTON        SUNNY     73  33  22 S9G18     29.99F
DODGE CENTER   SUNNY     72  30  21 S15G21    30.04S
WINONA         SUNNY     73  34  23 SW9G16    30.05S
AUSTIN         SUNNY     70  34  26 S12G20    30.04F
PRESTON        SUNNY     70  33  24 S14       30.07S
$$
ABBREVIATIONS USED IN REMARKS
   TC - TEMPERATURES IN CELSIUS
  WCI - WIND CHILL INDEX
   HX - HEAT INDEX
  VSB - VISIBILITY
$$




USA.gov is the U.S. government's official web portal to all federal, state and local government web resources and services.